,,Stat6,,Stat2,,Stat8,,Stat9,,Stat10,,Wind1,,Wind1,
time,status,PA1M_AVG,status,PR1M_SUM,status,RH1M_AVG,status,SR1M_AVG,status,TA1M_AVG,status,W1dAve1m,status,W1sAve1m,
2008-08-21, 00:00:00,VALID,918.309,VALID,0,VALID,100,VALID,0,VALID,19.3968,VALID,124,VALID,0,
2008-08-21, 00:01:00,VALID,918.293,VALID,0,VALID,100,VALID,-0.0169808,VALID,19.4033,VALID,130,VALID,0.0888672,
2008-08-21, 00:02:00,VALID,918.266,VALID,0,VALID,100,VALID,-0.0169808,VALID,19.4101,VALID,129,VALID,0.910156,
2008-08-21, 00:03:00,VALID,918.238,VALID,0,VALID,100,VALID,-0.0339617,VALID,19.4001,VALID,126,VALID,0.752418,
2008-08-21, 00:04:00,VALID,918.218,VALID,0,VALID,100,VALID,-0.0339617,VALID,19.3971,VALID,133,VALID,0.197088,
2008-08-21, 00:05:00,VALID,918.187,VALID,0,VALID,100,VALID,-0.0509425,VALID,19.4135,VALID,151,VALID,0,
2008-08-21, 00:06:00,VALID,918.165,VALID,0,VALID,100,VALID,-0.0339617,VALID,19.4126,VALID,153,VALID,0,
2008-08-21, 00:07:00,VALID,918.144,VALID,0,VALID,100,VALID,-0.0169808,VALID,19.4198,VALID,153,VALID,0,
2008-08-21, 00:08:00,VALID,918.135,VALID,0,VALID,100,VALID,-0.0169808,VALID,19.4295,VALID,136,VALID,0,
2008-08-21, 00:09:00,VALID,918.144,VALID,0,VALID,100,VALID,0,VALID,19.4288,VALID,102,VALID,0,
2008-08-21, 00:10:00,VALID,918.152,VALID,0,VALID,100,VALID,-0.0169808,VALID,19.4425,VALID,102,VALID,0,
2008-08-21, 00:11:00,VALID,918.174,VALID,0,VALID,100,VALID,0,VALID,19.4253,VALID,102,VALID,0,
2008-08-21, 00:12:00,VALID,918.191,VALID,0,VALID,100,VALID,0,VALID,19.4455,VALID,102,VALID,0,
2008-08-21, 00:13:00,VALID,918.225,VALID,0,VALID,100,VALID,-0.0339617,VALID,19.4647,VALID,102,VALID,0,
2008-08-21, 00:14:00,VALID,918.235,VALID,0,VALID,100,VALID,0,VALID,19.4779,VALID,102,VALID,0,
2008-08-21, 00:15:00,VALID,918.252,VALID,0,VALID,100,VALID,0,VALID,19.4947,VALID,102,VALID,0,
2008-08-21, 00:16:00,VALID,918.239,VALID,0,VALID,100,VALID,-0.0169808,VALID,19.4869,VALID,102,VALID,0,
2008-08-21, 00:17:00,VALID,918.239,VALID,0,VALID,100,VALID,0,VALID,19.4907,VALID,102,VALID,0,
2008-08-21, 00:18:00,VALID,918.219,VALID,0,VALID,100,VALID,0,VALID,19.4774,VALID,102,VALID,0,
2008-08-21, 00:19:00,VALID,918.188,VALID,0,VALID,100,VALID,0,VALID,19.4712,VALID,102,VALID,0,
2008-08-21, 00:20:00,VALID,918.175,VALID,0,VALID,100,VALID,0,VALID,19.4814,VALID,102,VALID,0,
2008-08-21, 00:21:00,VALID,918.149,VALID,0,VALID,100,VALID,-0.101885,VALID,19.4789,VALID,102,VALID,0,
2008-08-21, 00:22:00,VALID,918.139,VALID,0,VALID,100,VALID,-0.101885,VALID,19.4757,VALID,113,VALID,0,
2008-08-21, 00:23:00,VALID,918.141,VALID,0,VALID,100,VALID,-0.118866,VALID,19.4959,VALID,114,VALID,0,
2008-08-21, 00:24:00,VALID,918.145,VALID,0,VALID,100,VALID,-0.135847,VALID,19.4959,VALID,114,VALID,0,
2008-08-21, 00:25:00,VALID,918.169,VALID,0,VALID,100,VALID,-0.101885,VALID,19.5024,VALID,114,VALID,0,
2008-08-21, 00:26:00,VALID,918.178,VALID,0,VALID,100,VALID,-0.101885,VALID,19.4662,VALID,114,VALID,0,
2008-08-21, 00:27:00,VALID,918.195,VALID,0,VALID,100,VALID,-0.101885,VALID,19.4368,VALID,114,VALID,0,
2008-08-21, 00:28:00,VALID,918.215,VALID,0,VALID,100,VALID,-0.0679233,VALID,19.414,VALID,114,VALID,0,
2008-08-21, 00:29:00,VALID,918.227,VALID,0,VALID,100,VALID,-0.0679233,VALID,19.4073,VALID,77,VALID,0,
2008-08-21, 00:30:00,VALID,918.23,VALID,0,VALID,100,VALID,-0.118866,VALID,19.411,VALID,73,VALID,0,
2008-08-21, 00:31:00,VALID,918.226,VALID,0,VALID,100,VALID,-0.152827,VALID,19.4046,VALID,72,VALID,0,
2008-08-21, 00:32:00,VALID,918.233,VALID,0,VALID,100,VALID,-0.118866,VALID,19.4076,VALID,71,VALID,0,
2008-08-21, 00:33:00,VALID,918.235,VALID,0,VALID,100,VALID,-0.101885,VALID,19.4078,VALID,69,VALID,0,
2008-08-21, 00:34:00,VALID,918.224,VALID,0,VALID,100,VALID,-0.0849042,VALID,19.4078,VALID,69,VALID,0,
2008-08-21, 00:35:00,VALID,918.234,VALID,0,VALID,100,VALID,-0.135847,VALID,19.4113,VALID,69,VALID,0,
2008-08-21, 00:36:00,VALID,918.225,VALID,0,VALID,100,VALID,-0.101885,VALID,19.4105,VALID,69,VALID,0,
2008-08-21, 00:37:00,VALID,918.201,VALID,0,VALID,100,VALID,-0.0849042,VALID,19.4165,VALID,69,VALID,0,
2008-08-21, 00:38:00,VALID,918.174,VALID,0,VALID,100,VALID,-0.0339617,VALID,19.4263,VALID,69,VALID,0.726944,
2008-08-21, 00:39:00,VALID,918.143,VALID,0,VALID,100,VALID,-0.0679233,VALID,19.4193,VALID,69,VALID,0.789608,
2008-08-21, 00:40:00,VALID,918.112,VALID,0,VALID,100,VALID,-0.0509425,VALID,19.4228,VALID,78,VALID,0.734557,
2008-08-21, 00:41:00,VALID,918.08,VALID,0,VALID,100,VALID,-0.0849042,VALID,19.4393,VALID,78,VALID,0.45957,
2008-08-21, 00:42:00,VALID,918.053,VALID,0,VALID,100,VALID,-0.0849042,VALID,19.4395,VALID,78,VALID,0,
2008-08-21, 00:43:00,VALID,918.024,VALID,0,VALID,100,VALID,-0.101885,VALID,19.4263,VALID,78,VALID,0.0723586,
2008-08-21, 00:44:00,VALID,918.016,VALID,0,VALID,100,VALID,-0.0679233,VALID,19.4328,VALID,82,VALID,0,
2008-08-21, 00:45:00,VALID,917.991,VALID,0,VALID,100,VALID,-0.0509425,VALID,19.4395,VALID,116,VALID,0.208734,
2008-08-21, 00:46:00,VALID,917.978,VALID,0,VALID,100,VALID,-0.0169808,VALID,19.442,VALID,137,VALID,0.353338,
2008-08-21, 00:47:00,VALID,917.963,VALID,0,VALID,100,VALID,-0.101885,VALID,19.4455,VALID,147,VALID,0.225109,
2008-08-21, 00:48:00,VALID,917.946,VALID,0,VALID,100,VALID,-0.0339617,VALID,19.452,VALID,152,VALID,0,
2008-08-21, 00:49:00,VALID,917.93,VALID,0,VALID,100,VALID,-0.0679233,VALID,19.4582,VALID,155,VALID,0.327035,
2008-08-21, 00:50:00,VALID,917.907,VALID,0,VALID,100,VALID,-0.0169808,VALID,19.4715,VALID,153,VALID,0.0416016,
2008-08-21, 00:51:00,VALID,917.89,VALID,0,VALID,100,VALID,-0.0169808,VALID,19.468,VALID,147,VALID,0,
2008-08-21, 00:52:00,VALID,917.881,VALID,0,VALID,100,VALID,-0.0679233,VALID,19.4747,VALID,160,VALID,0.124653,
2008-08-21, 00:53:00,VALID,917.877,VALID,0,VALID,100,VALID,-0.0339617,VALID,19.4904,VALID,137,VALID,0.0361555,
2008-08-21, 00:54:00,VALID,917.873,VALID,0,VALID,100,VALID,-0.0849042,VALID,19.5139,VALID,136,VALID,0,
2008-08-21, 00:55:00,VALID,917.882,VALID,0,VALID,100,VALID,-0.0509425,VALID,19.5104,VALID,136,VALID,0,
2008-08-21, 00:56:00,VALID,917.895,VALID,0,VALID,100,VALID,-0.101885,VALID,19.5136,VALID,136,VALID,0,
2008-08-21, 00:57:00,VALID,917.903,VALID,0,VALID,100,VALID,-0.0679233,VALID,19.5236,VALID,136,VALID,0,
2008-08-21, 00:58:00,VALID,917.903,VALID,0,VALID,100,VALID,-0.0849042,VALID,19.5231,VALID,136,VALID,0,
2008-08-21, 00:59:00,VALID,917.887,VALID,0,VALID,100,VALID,-0.0339617,VALID,19.5361,VALID,136,VALID,0,
2008-08-21, 01:00:00,VALID,917.87,VALID,0,VALID,100,VALID,-0.0679233,VALID,19.5461,VALID,136,VALID,0,
2008-08-21, 01:01:00,VALID,917.861,VALID,0,VALID,100,VALID,-0.0169808,VALID,19.5628,VALID,136,VALID,0,
2008-08-21, 01:02:00,VALID,917.832,VALID,0,VALID,100,VALID,-0.0509425,VALID,19.5753,VALID,136,VALID,0,
2008-08-21, 01:03:00,VALID,917.829,VALID,0,VALID,100,VALID,-0.0169808,VALID,19.5753,VALID,136,VALID,0,
2008-08-21, 01:04:00,VALID,917.807,VALID,0,VALID,100,VALID,-0.0339617,VALID,19.5748,VALID,136,VALID,0,
2008-08-21, 01:05:00,VALID,917.789,VALID,0,VALID,100,VALID,-0.0849042,VALID,19.5915,VALID,136,VALID,0,
2008-08-21, 01:06:00,VALID,917.776,VALID,0,VALID,100,VALID,-0.0509425,VALID,19.595,VALID,136,VALID,0,
2008-08-21, 01:07:00,VALID,917.771,VALID,0,VALID,100,VALID,-0.0169808,VALID,19.5848,VALID,136,VALID,0,
2008-08-21, 01:08:00,VALID,917.753,VALID,0,VALID,100,VALID,-0.0339617,VALID,19.5713,VALID,136,VALID,0,
2008-08-21, 01:09:00,VALID,917.744,VALID,0,VALID,100,VALID,-0.0509425,VALID,19.5823,VALID,136,VALID,0,
2008-08-21, 01:10:00,VALID,917.731,VALID,0,VALID,100,VALID,-0.0339617,VALID,19.5725,VALID,136,VALID,0,
2008-08-21, 01:11:00,VALID,917.72,VALID,0,VALID,100,VALID,-0.0849042,VALID,19.5658,VALID,136,VALID,0,
2008-08-21, 01:12:00,VALID,917.706,VALID,0,VALID,100,VALID,-0.0509425,VALID,19.5523,VALID,136,VALID,0,
2008-08-21, 01:13:00,VALID,917.697,VALID,0,VALID,100,VALID,-0.0169808,VALID,19.5593,VALID,136,VALID,0,
2008-08-21, 01:14:00,VALID,917.691,VALID,0,VALID,100,VALID,-0.0339617,VALID,19.5655,VALID,136,VALID,0,
2008-08-21, 01:15:00,VALID,917.676,VALID,0,VALID,100,VALID,-0.0509425,VALID,19.5788,VALID,136,VALID,0,
2008-08-21, 01:16:00,VALID,917.654,VALID,0,VALID,100,VALID,-0.0679233,VALID,19.6017,VALID,136,VALID,0,
2008-08-21, 01:17:00,VALID,917.643,VALID,0,VALID,100,VALID,-0.0169808,VALID,19.5848,VALID,125,VALID,0,
2008-08-21, 01:18:00,VALID,917.656,VALID,0,VALID,100,VALID,-0.0509425,VALID,19.5753,VALID,121,VALID,0,
2008-08-21, 01:19:00,VALID,917.645,VALID,0,VALID,100,VALID,-0.0509425,VALID,19.5423,VALID,121,VALID,0,
2008-08-21, 01:20:00,VALID,917.646,VALID,0,VALID,100,VALID,-0.0849042,VALID,19.5363,VALID,114,VALID,0,
2008-08-21, 01:21:00,VALID,917.64,VALID,0,VALID,100,VALID,-0.0679233,VALID,19.5269,VALID,97,VALID,0,
2008-08-21, 01:22:00,VALID,917.635,VALID,0,VALID,100,VALID,-0.0679233,VALID,19.5139,VALID,91,VALID,0,
2008-08-21, 01:23:00,VALID,917.618,VALID,0,VALID,100,VALID,-0.0849042,VALID,19.5104,VALID,90,VALID,0,
2008-08-21, 01:24:00,VALID,917.627,VALID,0,VALID,100,VALID,-0.0169808,VALID,19.5041,VALID,90,VALID,0,
2008-08-21, 01:25:00,VALID,917.616,VALID,0,VALID,100,VALID,-0.0509425,VALID,19.5136,VALID,90,VALID,0,
2008-08-21, 01:26:00,VALID,917.614,VALID,0,VALID,100,VALID,-0.118866,VALID,19.5174,VALID,90,VALID,0,
2008-08-21, 01:27:00,VALID,917.615,VALID,0,VALID,100,VALID,-0.101885,VALID,19.5141,VALID,90,VALID,0,
2008-08-21, 01:28:00,VALID,917.621,VALID,0,VALID,100,VALID,-0.0679233,VALID,19.5269,VALID,90,VALID,0,
2008-08-21, 01:29:00,VALID,917.612,VALID,0,VALID,100,VALID,-0.0849042,VALID,19.5531,VALID,90,VALID,0,
2008-08-21, 01:30:00,VALID,917.607,VALID,0,VALID,100,VALID,-0.0849042,VALID,19.5663,VALID,90,VALID,0,
2008-08-21, 01:31:00,VALID,917.606,VALID,0,VALID,100,VALID,-0.0679233,VALID,19.5428,VALID,90,VALID,0,
2008-08-21, 01:32:00,VALID,917.588,VALID,0,VALID,100,VALID,-0.101885,VALID,19.5623,VALID,90,VALID,0,
2008-08-21, 01:33:00,VALID,917.574,VALID,0,VALID,100,VALID,-0.0849042,VALID,19.5818,VALID,90,VALID,0,
2008-08-21, 01:34:00,VALID,917.567,VALID,0,VALID,100,VALID,-0.0849042,VALID,19.5855,VALID,90,VALID,0,
2008-08-21, 01:35:00,VALID,917.551,VALID,0,VALID,100,VALID,-0.0509425,VALID,19.582,VALID,90,VALID,0,
2008-08-21, 01:36:00,VALID,917.553,VALID,0,VALID,100,VALID,-0.0849042,VALID,19.566,VALID,90,VALID,0,
2008-08-21, 01:37:00,VALID,917.551,VALID,0,VALID,100,VALID,-0.101885,VALID,19.5501,VALID,90,VALID,0,
2008-08-21, 01:38:00,VALID,917.537,VALID,0,VALID,100,VALID,-0.101885,VALID,19.5468,VALID,90,VALID,0,
2008-08-21, 01:39:00,VALID,917.53,VALID,0,VALID,100,VALID,-0.0849042,VALID,19.5531,VALID,90,VALID,0,
2008-08-21, 01:40:00,VALID,917.524,VALID,0,VALID,100,VALID,-0.0849042,VALID,19.563,VALID,90,VALID,0,
2008-08-21, 01:41:00,VALID,917.508,VALID,0,VALID,100,VALID,-0.101885,VALID,19.566,VALID,90,VALID,0,
2008-08-21, 01:42:00,VALID,917.487,VALID,0,VALID,100,VALID,-0.118866,VALID,19.5793,VALID,90,VALID,0,
2008-08-21, 01:43:00,VALID,917.472,VALID,0,VALID,100,VALID,-0.0849042,VALID,19.5857,VALID,90,VALID,0,
2008-08-21, 01:44:00,VALID,917.457,VALID,0,VALID,100,VALID,-0.0849042,VALID,19.579,VALID,90,VALID,0,
2008-08-21, 01:45:00,VALID,917.446,VALID,0,VALID,100,VALID,-0.0849042,VALID,19.569,VALID,90,VALID,0,
2008-08-21, 01:46:00,VALID,917.44,VALID,0,VALID,100,VALID,-0.101885,VALID,19.5663,VALID,90,VALID,0,
2008-08-21, 01:47:00,VALID,917.454,VALID,0,VALID,100,VALID,-0.0339617,VALID,19.562,VALID,90,VALID,0,
2008-08-21, 01:48:00,VALID,917.458,VALID,0,VALID,100,VALID,-0.0849042,VALID,19.5695,VALID,90,VALID,0,
2008-08-21, 01:49:00,VALID,917.463,VALID,0,VALID,100,VALID,-0.0509425,VALID,19.5561,VALID,90,VALID,0,
2008-08-21, 01:50:00,VALID,917.462,VALID,0,VALID,100,VALID,-0.0679233,VALID,19.5593,VALID,90,VALID,0,
2008-08-21, 01:51:00,VALID,917.441,VALID,0,VALID,100,VALID,-0.0849042,VALID,19.5558,VALID,90,VALID,0,
2008-08-21, 01:52:00,VALID,917.453,VALID,0,VALID,100,VALID,-0.0849042,VALID,19.566,VALID,90,VALID,0,
2008-08-21, 01:53:00,VALID,917.434,VALID,0,VALID,100,VALID,-0.0849042,VALID,19.5688,VALID,90,VALID,0,
2008-08-21, 01:54:00,VALID,917.437,VALID,0,VALID,100,VALID,-0.101885,VALID,19.5793,VALID,90,VALID,0,
2008-08-21, 01:55:00,VALID,917.44,VALID,0,VALID,100,VALID,-0.101885,VALID,19.5725,VALID,90,VALID,0,
2008-08-21, 01:56:00,VALID,917.448,VALID,0,VALID,100,VALID,-0.0509425,VALID,19.5561,VALID,90,VALID,0,
2008-08-21, 01:57:00,VALID,917.44,VALID,0,VALID,100,VALID,-0.0679233,VALID,19.5398,VALID,90,VALID,0,
2008-08-21, 01:58:00,VALID,917.424,VALID,0,VALID,100,VALID,-0.0849042,VALID,19.5171,VALID,90,VALID,0,
2008-08-21, 01:59:00,VALID,917.421,VALID,0,VALID,100,VALID,-0.0339617,VALID,19.5039,VALID,90,VALID,0,
2008-08-21, 02:00:00,VALID,917.404,VALID,0,VALID,100,VALID,-0.0679233,VALID,19.4877,VALID,90,VALID,0,
2008-08-21, 02:01:00,VALID,917.378,VALID,0,VALID,100,VALID,-0.0339617,VALID,19.4942,VALID,90,VALID,0,
2008-08-21, 02:02:00,VALID,917.356,VALID,0,VALID,100,VALID,-0.0679233,VALID,19.4942,VALID,90,VALID,0,
2008-08-21, 02:03:00,VALID,917.343,VALID,0,VALID,100,VALID,-0.0849042,VALID,19.5111,VALID,90,VALID,0,
2008-08-21, 02:04:00,VALID,917.331,VALID,0,VALID,100,VALID,-0.0509425,VALID,19.5036,VALID,90,VALID,0,
2008-08-21, 02:05:00,VALID,917.32,VALID,0,VALID,100,VALID,-0.0849042,VALID,19.5171,VALID,90,VALID,0,
2008-08-21, 02:06:00,VALID,917.308,VALID,0,VALID,100,VALID,-0.0679233,VALID,19.5166,VALID,90,VALID,0,
2008-08-21, 02:07:00,VALID,917.322,VALID,0,VALID,100,VALID,-0.0339617,VALID,19.5131,VALID,90,VALID,0,
2008-08-21, 02:08:00,VALID,917.331,VALID,0,VALID,100,VALID,-0.0509425,VALID,19.5169,VALID,90,VALID,0,
2008-08-21, 02:09:00,VALID,917.317,VALID,0,VALID,100,VALID,-0.0509425,VALID,19.5261,VALID,90,VALID,0,
2008-08-21, 02:10:00,VALID,917.322,VALID,0,VALID,100,VALID,-0.0509425,VALID,19.559,VALID,90,VALID,0,
2008-08-21, 02:11:00,VALID,917.33,VALID,0,VALID,100,VALID,-0.0679233,VALID,19.579,VALID,90,VALID,0,
2008-08-21, 02:12:00,VALID,917.328,VALID,0,VALID,100,VALID,-0.0509425,VALID,19.5653,VALID,90,VALID,0,
2008-08-21, 02:13:00,VALID,917.317,VALID,0,VALID,100,VALID,-0.0169808,VALID,19.5685,VALID,90,VALID,0,
2008-08-21, 02:14:00,VALID,917.302,VALID,0,VALID,100,VALID,-0.0339617,VALID,19.5655,VALID,90,VALID,0,
2008-08-21, 02:15:00,VALID,917.283,VALID,0,VALID,100,VALID,-0.101885,VALID,19.5723,VALID,90,VALID,0,
2008-08-21, 02:16:00,VALID,917.265,VALID,0,VALID,100,VALID,-0.0679233,VALID,19.5393,VALID,90,VALID,0,
2008-08-21, 02:17:00,VALID,917.258,VALID,0,VALID,100,VALID,-0.0169808,VALID,19.5296,VALID,90,VALID,0,
2008-08-21, 02:18:00,VALID,917.262,VALID,0,VALID,100,VALID,-0.0679233,VALID,19.5299,VALID,90,VALID,0,
2008-08-21, 02:19:00,VALID,917.251,VALID,0,VALID,100,VALID,-0.0509425,VALID,19.5264,VALID,90,VALID,0,
2008-08-21, 02:20:00,VALID,917.25,VALID,0,VALID,100,VALID,-0.0509425,VALID,19.5199,VALID,90,VALID,0,
2008-08-21, 02:21:00,VALID,917.254,VALID,0,VALID,100,VALID,-0.0509425,VALID,19.5368,VALID,90,VALID,0,
2008-08-21, 02:22:00,VALID,917.241,VALID,0,VALID,100,VALID,-0.0679233,VALID,19.5426,VALID,90,VALID,0,
2008-08-21, 02:23:00,VALID,917.23,VALID,0,VALID,100,VALID,-0.0679233,VALID,19.5393,VALID,90,VALID,0,
2008-08-21, 02:24:00,VALID,917.211,VALID,0,VALID,100,VALID,-0.0679233,VALID,19.5498,VALID,90,VALID,0,
2008-08-21, 02:25:00,VALID,917.193,VALID,0,VALID,100,VALID,-0.0339617,VALID,19.5393,VALID,90,VALID,0,
2008-08-21, 02:26:00,VALID,917.18,VALID,0,VALID,100,VALID,-0.0849042,VALID,19.5299,VALID,90,VALID,0,
2008-08-21, 02:27:00,VALID,917.159,VALID,0,VALID,100,VALID,-0.0679233,VALID,19.5231,VALID,90,VALID,0,
2008-08-21, 02:28:00,VALID,917.152,VALID,0,VALID,100,VALID,-0.0849042,VALID,19.5231,VALID,90,VALID,0,
2008-08-21, 02:29:00,VALID,917.137,VALID,0,VALID,100,VALID,-0.0509425,VALID,19.5401,VALID,90,VALID,0,
2008-08-21, 02:30:00,VALID,917.122,VALID,0,VALID,100,VALID,-0.118866,VALID,19.5431,VALID,90,VALID,0,
2008-08-21, 02:31:00,VALID,917.113,VALID,0,VALID,100,VALID,-0.0679233,VALID,19.5398,VALID,90,VALID,0,
2008-08-21, 02:32:00,VALID,917.102,VALID,0,VALID,100,VALID,-0.0509425,VALID,19.5531,VALID,90,VALID,0,
2008-08-21, 02:33:00,VALID,917.118,VALID,0,VALID,100,VALID,-0.0509425,VALID,19.5498,VALID,90,VALID,0,
2008-08-21, 02:34:00,VALID,917.112,VALID,0,VALID,100,VALID,-0.0509425,VALID,19.5396,VALID,90,VALID,0,
2008-08-21, 02:35:00,VALID,917.102,VALID,0,VALID,100,VALID,0,VALID,19.5331,VALID,90,VALID,0,
2008-08-21, 02:36:00,VALID,917.102,VALID,0,VALID,100,VALID,-0.0339617,VALID,19.5333,VALID,90,VALID,0,
2008-08-21, 02:37:00,VALID,917.097,VALID,0,VALID,100,VALID,0,VALID,19.5196,VALID,90,VALID,0,
2008-08-21, 02:38:00,VALID,917.079,VALID,0,VALID,100,VALID,0,VALID,19.5131,VALID,90,VALID,0,
2008-08-21, 02:39:00,VALID,917.071,VALID,0,VALID,100,VALID,-0.0509425,VALID,19.5074,VALID,90,VALID,0,
2008-08-21, 02:40:00,VALID,917.055,VALID,0,VALID,100,VALID,0,VALID,19.5034,VALID,90,VALID,0,
2008-08-21, 02:41:00,VALID,917.034,VALID,0,VALID,100,VALID,0,VALID,19.4967,VALID,90,VALID,0,
2008-08-21, 02:42:00,VALID,917.012,VALID,0,VALID,100,VALID,-0.0169808,VALID,19.5071,VALID,98,VALID,0,
2008-08-21, 02:43:00,VALID,917.004,VALID,0,VALID,100,VALID,-0.0169808,VALID,19.4907,VALID,110,VALID,0,
2008-08-21, 02:44:00,VALID,916.999,VALID,0,VALID,100,VALID,0,VALID,19.4842,VALID,110,VALID,0,
2008-08-21, 02:45:00,VALID,917.002,VALID,0,VALID,100,VALID,0,VALID,19.4745,VALID,110,VALID,0,
2008-08-21, 02:46:00,VALID,916.997,VALID,0,VALID,100,VALID,-0.0169808,VALID,19.4712,VALID,110,VALID,0,
2008-08-21, 02:47:00,VALID,916.999,VALID,0,VALID,100,VALID,-0.0169808,VALID,19.4779,VALID,110,VALID,0,
2008-08-21, 02:48:00,VALID,916.997,VALID,0,VALID,100,VALID,-0.0169808,VALID,19.4745,VALID,120,VALID,0,
2008-08-21, 02:49:00,VALID,917,VALID,0,VALID,100,VALID,0,VALID,19.4645,VALID,121,VALID,0,
2008-08-21, 02:50:00,VALID,916.995,VALID,0,VALID,100,VALID,-0.0169808,VALID,19.4612,VALID,121,VALID,0,
2008-08-21, 02:51:00,VALID,916.979,VALID,0,VALID,100,VALID,0,VALID,19.458,VALID,121,VALID,0,
2008-08-21, 02:52:00,VALID,916.968,VALID,0,VALID,100,VALID,0,VALID,19.4513,VALID,121,VALID,0,
2008-08-21, 02:53:00,VALID,916.967,VALID,0,VALID,100,VALID,0,VALID,19.4575,VALID,121,VALID,0,
2008-08-21, 02:54:00,VALID,916.969,VALID,0,VALID,100,VALID,-0.0169808,VALID,19.4615,VALID,121,VALID,0,
2008-08-21, 02:55:00,VALID,916.967,VALID,0,VALID,100,VALID,-0.0169808,VALID,19.4577,VALID,121,VALID,0,
2008-08-21, 02:56:00,VALID,916.956,VALID,0,VALID,100,VALID,0.0169808,VALID,19.4645,VALID,121,VALID,0,
2008-08-21, 02:57:00,VALID,916.94,VALID,0,VALID,100,VALID,-0.0169808,VALID,19.458,VALID,121,VALID,0,
2008-08-21, 02:58:00,VALID,916.929,VALID,0,VALID,100,VALID,0,VALID,19.4712,VALID,121,VALID,0,
2008-08-21, 02:59:00,VALID,916.905,VALID,0,VALID,100,VALID,0,VALID,19.4804,VALID,129,VALID,0,
2008-08-21, 03:00:00,VALID,916.9,VALID,0,VALID,100,VALID,-0.0169808,VALID,19.4804,VALID,133,VALID,0,
2008-08-21, 03:01:00,VALID,916.897,VALID,0,VALID,100,VALID,0,VALID,19.474,VALID,134,VALID,0,
2008-08-21, 03:02:00,VALID,916.901,VALID,0,VALID,100,VALID,-0.0169808,VALID,19.4809,VALID,134,VALID,0,
2008-08-21, 03:03:00,VALID,916.895,VALID,0,VALID,100,VALID,-0.0169808,VALID,19.4942,VALID,134,VALID,0,
2008-08-21, 03:04:00,VALID,916.889,VALID,0,VALID,100,VALID,0,VALID,19.4902,VALID,134,VALID,0,
2008-08-21, 03:05:00,VALID,916.875,VALID,0,VALID,100,VALID,0,VALID,19.4899,VALID,134,VALID,0,
2008-08-21, 03:06:00,VALID,916.87,VALID,0,VALID,100,VALID,-0.0339617,VALID,19.5039,VALID,134,VALID,0,
2008-08-21, 03:07:00,VALID,916.855,VALID,0,VALID,100,VALID,-0.0339617,VALID,19.5004,VALID,134,VALID,0,
2008-08-21, 03:08:00,VALID,916.837,VALID,0,VALID,100,VALID,-0.0169808,VALID,19.5007,VALID,134,VALID,0,
2008-08-21, 03:09:00,VALID,916.848,VALID,0,VALID,100,VALID,0,VALID,19.4969,VALID,134,VALID,0,
2008-08-21, 03:10:00,VALID,916.841,VALID,0,VALID,100,VALID,-0.0339617,VALID,19.5034,VALID,134,VALID,0,
2008-08-21, 03:11:00,VALID,916.84,VALID,0,VALID,100,VALID,0,VALID,19.5064,VALID,134,VALID,0,
2008-08-21, 03:12:00,VALID,916.84,VALID,0,VALID,100,VALID,-0.0169808,VALID,19.4872,VALID,134,VALID,0,
2008-08-21, 03:13:00,VALID,916.846,VALID,0,VALID,100,VALID,0,VALID,19.4874,VALID,134,VALID,0,
2008-08-21, 03:14:00,VALID,916.835,VALID,0,VALID,100,VALID,-0.0169808,VALID,19.4779,VALID,134,VALID,0,
2008-08-21, 03:15:00,VALID,916.832,VALID,0,VALID,100,VALID,-0.0339617,VALID,19.4742,VALID,134,VALID,0,
2008-08-21, 03:16:00,VALID,916.821,VALID,0,VALID,100,VALID,-0.0339617,VALID,19.471,VALID,134,VALID,0,
2008-08-21, 03:17:00,VALID,916.792,VALID,0,VALID,100,VALID,-0.0169808,VALID,19.4777,VALID,134,VALID,0,
2008-08-21, 03:18:00,VALID,916.788,VALID,0,VALID,100,VALID,-0.0339617,VALID,19.4777,VALID,134,VALID,0,
2008-08-21, 03:19:00,VALID,916.777,VALID,0,VALID,100,VALID,-0.0509425,VALID,19.4879,VALID,134,VALID,0,
2008-08-21, 03:20:00,VALID,916.767,VALID,0,VALID,100,VALID,-0.0169808,VALID,19.4939,VALID,134,VALID,0,
2008-08-21, 03:21:00,VALID,916.778,VALID,0,VALID,100,VALID,-0.0169808,VALID,19.4969,VALID,134,VALID,0,
2008-08-21, 03:22:00,VALID,916.773,VALID,0,VALID,100,VALID,0.0169808,VALID,19.5064,VALID,134,VALID,0,
2008-08-21, 03:23:00,VALID,916.772,VALID,0,VALID,100,VALID,0,VALID,19.5134,VALID,134,VALID,0,
2008-08-21, 03:24:00,VALID,916.776,VALID,0,VALID,100,VALID,-0.0169808,VALID,19.5104,VALID,134,VALID,0,
2008-08-21, 03:25:00,VALID,916.777,VALID,0,VALID,100,VALID,-0.0509425,VALID,19.5041,VALID,134,VALID,0,
2008-08-21, 03:26:00,VALID,916.767,VALID,0,VALID,100,VALID,-0.0169808,VALID,19.477,VALID,134,VALID,0,
2008-08-21, 03:27:00,VALID,916.75,VALID,0,VALID,100,VALID,-0.0169808,VALID,19.4645,VALID,134,VALID,0,
2008-08-21, 03:28:00,VALID,916.755,VALID,0,VALID,100,VALID,0,VALID,19.4515,VALID,134,VALID,0,
2008-08-21, 03:29:00,VALID,916.748,VALID,0,VALID,100,VALID,-0.0339617,VALID,19.445,VALID,134,VALID,0,
2008-08-21, 03:30:00,VALID,916.754,VALID,0,VALID,100,VALID,-0.0339617,VALID,19.4353,VALID,134,VALID,0,
2008-08-21, 03:31:00,VALID,916.758,VALID,0,VALID,100,VALID,0,VALID,19.4385,VALID,134,VALID,0,
2008-08-21, 03:32:00,VALID,916.758,VALID,0,VALID,100,VALID,0,VALID,19.445,VALID,134,VALID,0,
2008-08-21, 03:33:00,VALID,916.762,VALID,0,VALID,100,VALID,-0.0169808,VALID,19.4647,VALID,134,VALID,0,
2008-08-21, 03:34:00,VALID,916.743,VALID,0,VALID,100,VALID,-0.0339617,VALID,19.4677,VALID,134,VALID,0,
2008-08-21, 03:35:00,VALID,916.729,VALID,0,VALID,100,VALID,-0.0169808,VALID,19.4937,VALID,134,VALID,0,
2008-08-21, 03:36:00,VALID,916.715,VALID,0,VALID,100,VALID,0.0169808,VALID,19.5087,VALID,134,VALID,0,
2008-08-21, 03:37:00,VALID,916.704,VALID,0,VALID,100,VALID,0.0509425,VALID,19.5022,VALID,134,VALID,0,
2008-08-21, 03:38:00,VALID,916.691,VALID,0,VALID,100,VALID,0.0849042,VALID,19.5052,VALID,134,VALID,0,
2008-08-21, 03:39:00,VALID,916.676,VALID,0,VALID,100,VALID,0.0679233,VALID,19.5216,VALID,134,VALID,0,
2008-08-21, 03:40:00,VALID,916.659,VALID,0,VALID,100,VALID,0.0849042,VALID,19.5281,VALID,134,VALID,0,
2008-08-21, 03:41:00,VALID,916.656,VALID,0,VALID,100,VALID,0,VALID,19.5413,VALID,134,VALID,0,
2008-08-21, 03:42:00,VALID,916.654,VALID,0,VALID,100,VALID,0.0169808,VALID,19.5511,VALID,134,VALID,0,
2008-08-21, 03:43:00,VALID,916.646,VALID,0,VALID,100,VALID,0.0679233,VALID,19.5376,VALID,134,VALID,0,
2008-08-21, 03:44:00,VALID,916.663,VALID,0,VALID,100,VALID,0.0849042,VALID,19.5279,VALID,134,VALID,0,
2008-08-21, 03:45:00,VALID,916.665,VALID,0,VALID,100,VALID,0.0849042,VALID,19.5211,VALID,134,VALID,0,
2008-08-21, 03:46:00,VALID,916.684,VALID,0,VALID,100,VALID,0.101885,VALID,19.5276,VALID,134,VALID,0,
2008-08-21, 03:47:00,VALID,916.701,VALID,0,VALID,100,VALID,0.0849042,VALID,19.5344,VALID,134,VALID,0,
2008-08-21, 03:48:00,VALID,916.717,VALID,0,VALID,100,VALID,0.118866,VALID,19.5374,VALID,134,VALID,0,
2008-08-21, 03:49:00,VALID,916.727,VALID,0,VALID,100,VALID,0.0849042,VALID,19.5406,VALID,134,VALID,0,
2008-08-21, 03:50:00,VALID,916.742,VALID,0,VALID,100,VALID,0.0849042,VALID,19.5506,VALID,134,VALID,0,
2008-08-21, 03:51:00,VALID,916.762,VALID,0,VALID,100,VALID,0,VALID,19.5451,VALID,134,VALID,0,